iso_date,Year,Hour,Min,DOY,POS_DOY,Lat,Lon,BP,Ts,Ta,has_bp,has_ts,has_ta,BuoyID,Buoy_Type,Buoy_Owner,Logistics,Hemisphere
2020-09-05T18:00:00Z,2020,18,0,249.75,249.75,63.08,-53.601,-999.0,6.36,-999.0,no,yes,no,300234068343310,SVPGHI,AOML,MARIA_S._MERI,North
2020-09-05T19:02:03Z,2020,19,2,249.7931,249.7931,63.085,-53.642,-999.0,6.37,-999.0,no,yes,no,300234068343310,SVPGHI,AOML,MARIA_S._MERI,North
2020-09-05T19:59:57Z,2020,20,0,249.8333,249.8333,63.09,-53.68,-999.0,6.36,-999.0,no,yes,no,300234068343310,SVPGHI,AOML,MARIA_S._MERI,North
2020-09-05T21:00:00Z,2020,21,0,249.875,249.875,63.094,-53.717,-999.0,6.34,-999.0,no,yes,no,300234068343310,SVPGHI,AOML,MARIA_S._MERI,North
2020-09-05T22:01:03Z,2020,22,1,249.9174,249.9174,63.097,-53.754,-999.0,6.34,-999.0,no,yes,no,300234068343310,SVPGHI,AOML,MARIA_S._MERI,North
2020-09-05T22:59:57Z,2020,23,0,249.9583,249.9583,63.096,-53.79,-999.0,6.35,-999.0,no,yes,no,300234068343310,SVPGHI,AOML,MARIA_S._MERI,North
2020-09-06T00:00:00Z,2020,0,0,250.0,250.0,63.094,-53.829,-999.0,6.36,-999.0,no,yes,no,300234068343310,SVPGHI,AOML,MARIA_S._MERI,North
2020-09-06T01:01:03Z,2020,1,1,250.0424,250.0424,63.091,-53.866,-999.0,6.36,-999.0,no,yes,no,300234068343310,SVPGHI,AOML,MARIA_S._MERI,North
2020-09-06T01:59:57Z,2020,2,0,250.0833,250.0833,63.086,-53.902,-999.0,6.36,-999.0,no,yes,no,300234068343310,SVPGHI,AOML,MARIA_S._MERI,North
2020-09-06T03:00:00Z,2020,3,0,250.125,250.125,63.081,-53.936,-999.0,6.36,-999.0,no,yes,no,300234068343310,SVPGHI,AOML,MARIA_S._MERI,North
2020-09-06T04:00:02Z,2020,4,0,250.1667,250.1667,63.075,-53.976,-999.0,6.36,-999.0,no,yes,no,300234068343310,SVPGHI,AOML,MARIA_S._MERI,North
2020-09-06T04:59:57Z,2020,5,0,250.2083,250.2083,63.072,-54.015,-999.0,6.37,-999.0,no,yes,no,300234068343310,SVPGHI,AOML,MARIA_S._MERI,North
2020-09-06T06:00:00Z,2020,6,0,250.25,250.25,63.072,-54.055,-999.0,6.37,-999.0,no,yes,no,300234068343310,SVPGHI,AOML,MARIA_S._MERI,North
2020-09-06T07:00:02Z,2020,7,0,250.2917,250.2917,63.075,-54.093,-999.0,6.37,-999.0,no,yes,no,300234068343310,SVPGHI,AOML,MARIA_S._MERI,North
2020-09-06T07:59:57Z,2020,8,0,250.3333,250.3333,63.079,-54.129,-999.0,6.37,-999.0,no,yes,no,300234068343310,SVPGHI,AOML,MARIA_S._MERI,North
2020-09-06T09:00:00Z,2020,9,0,250.375,250.375,63.084,-54.164,-999.0,6.37,-999.0,no,yes,no,300234068343310,SVPGHI,AOML,MARIA_S._MERI,North
2020-09-06T10:00:02Z,2020,10,0,250.4167,250.4167,63.092,-54.196,-999.0,6.38,-999.0,no,yes,no,300234068343310,SVPGHI,AOML,MARIA_S._MERI,North
2020-09-06T10:59:57Z,2020,11,0,250.4583,250.4583,63.096,-54.229,-999.0,6.38,-999.0,no,yes,no,300234068343310,SVPGHI,AOML,MARIA_S._MERI,North
2020-09-06T12:00:00Z,2020,12,0,250.5,250.5,63.098,-54.262,-999.0,6.38,-999.0,no,yes,no,300234068343310,SVPGHI,AOML,MARIA_S._MERI,North
2020-09-06T13:00:02Z,2020,13,0,250.5417,250.5417,63.099,-54.307,-999.0,6.39,-999.0,no,yes,no,300234068343310,SVPGHI,AOML,MARIA_S._MERI,North
2020-09-06T14:03:59Z,2020,14,4,250.5861,250.5861,63.103,-54.36,-999.0,6.41,-999.0,no,yes,no,300234068343310,SVPGHI,AOML,MARIA_S._MERI,North
2020-09-06T15:02:00Z,2020,15,2,250.6264,250.6264,63.112,-54.401,-999.0,6.41,-999.0,no,yes,no,300234068343310,SVPGHI,AOML,MARIA_S._MERI,North
2020-09-06T16:00:02Z,2020,16,0,250.6667,250.6667,63.121,-54.438,-999.0,6.41,-999.0,no,yes,no,300234068343310,SVPGHI,AOML,MARIA_S._MERI,North
2020-09-06T16:59:57Z,2020,17,0,250.7083,250.7083,63.128,-54.475,-999.0,6.45,-999.0,no,yes,no,300234068343310,SVPGHI,AOML,MARIA_S._MERI,North
2020-09-06T18:00:00Z,2020,18,0,250.75,250.75,63.136,-54.515,-999.0,6.48,-999.0,no,yes,no,300234068343310,SVPGHI,AOML,MARIA_S._MERI,North
2020-09-06T19:01:03Z,2020,19,1,250.7924,250.7924,63.143,-54.555,-999.0,6.42,-999.0,no,yes,no,300234068343310,SVPGHI,AOML,MARIA_S._MERI,North
2020-09-06T19:59:57Z,2020,20,0,250.8333,250.8333,63.155,-54.59,-999.0,6.36,-999.0,no,yes,no,300234068343310,SVPGHI,AOML,MARIA_S._MERI,North
2020-09-06T21:00:00Z,2020,21,0,250.875,250.875,63.167,-54.627,-999.0,6.35,-999.0,no,yes,no,300234068343310,SVPGHI,AOML,MARIA_S._MERI,North
2020-09-06T22:00:02Z,2020,22,0,250.9167,250.9167,63.181,-54.667,-999.0,6.26,-999.0,no,yes,no,300234068343310,SVPGHI,AOML,MARIA_S._MERI,North
2020-09-06T22:59:57Z,2020,23,0,250.9583,250.9583,63.194,-54.703,-999.0,6.33,-999.0,no,yes,no,300234068343310,SVPGHI,AOML,MARIA_S._MERI,North
2020-09-07T00:00:00Z,2020,0,0,251.0,251.0,63.208,-54.738,-999.0,6.29,-999.0,no,yes,no,300234068343310,SVPGHI,AOML,MARIA_S._MERI,North
2020-09-07T01:00:02Z,2020,1,0,251.0417,251.0417,63.221,-54.772,-999.0,6.29,-999.0,no,yes,no,300234068343310,SVPGHI,AOML,MARIA_S._MERI,North
2020-09-07T02:00:57Z,2020,2,1,251.084,251.084,63.233,-54.803,-999.0,6.27,-999.0,no,yes,no,300234068343310,SVPGHI,AOML,MARIA_S._MERI,North
2020-09-07T03:01:00Z,2020,3,1,251.1257,251.1257,63.243,-54.829,-999.0,6.34,-999.0,no,yes,no,300234068343310,SVPGHI,AOML,MARIA_S._MERI,North
2020-09-07T04:00:02Z,2020,4,0,251.1667,251.1667,63.251,-54.857,-999.0,6.35,-999.0,no,yes,no,300234068343310,SVPGHI,AOML,MARIA_S._MERI,North
2020-09-07T04:59:57Z,2020,5,0,251.2083,251.2083,63.257,-54.887,-999.0,6.35,-999.0,no,yes,no,300234068343310,SVPGHI,AOML,MARIA_S._MERI,North
2020-09-07T06:04:01Z,2020,6,4,251.2528,251.2528,63.265,-54.923,-999.0,6.36,-999.0,no,yes,no,300234068343310,SVPGHI,AOML,MARIA_S._MERI,North
2020-09-07T07:00:02Z,2020,7,0,251.2917,251.2917,63.272,-54.955,-999.0,6.38,-999.0,no,yes,no,300234068343310,SVPGHI,AOML,MARIA_S._MERI,North
2020-09-07T07:59:57Z,2020,8,0,251.3333,251.3333,63.281,-54.987,-999.0,6.39,-999.0,no,yes,no,300234068343310,SVPGHI,AOML,MARIA_S._MERI,North
2020-09-07T09:01:00Z,2020,9,1,251.3757,251.3757,63.289,-55.018,-999.0,6.4,-999.0,no,yes,no,300234068343310,SVPGHI,AOML,MARIA_S._MERI,North
2020-09-07T10:02:03Z,2020,10,2,251.4181,251.4181,63.301,-55.047,-999.0,6.39,-999.0,no,yes,no,300234068343310,SVPGHI,AOML,MARIA_S._MERI,North
2020-09-07T11:03:59Z,2020,11,4,251.4611,251.4611,63.309,-55.083,-999.0,6.38,-999.0,no,yes,no,300234068343310,SVPGHI,AOML,MARIA_S._MERI,North
2020-09-07T12:00:00Z,2020,12,0,251.5,251.5,63.32,-55.119,-999.0,6.39,-999.0,no,yes,no,300234068343310,SVPGHI,AOML,MARIA_S._MERI,North
2020-09-07T13:03:56Z,2020,13,4,251.5444,251.5444,63.329,-55.151,-999.0,6.4,-999.0,no,yes,no,300234068343310,SVPGHI,AOML,MARIA_S._MERI,North
2020-09-07T13:59:57Z,2020,14,0,251.5833,251.5833,63.341,-55.179,-999.0,6.39,-999.0,no,yes,no,300234068343310,SVPGHI,AOML,MARIA_S._MERI,North
2020-09-07T15:00:00Z,2020,15,0,251.625,251.625,63.351,-55.201,-999.0,6.34,-999.0,no,yes,no,300234068343310,SVPGHI,AOML,MARIA_S._MERI,North
2020-09-07T16:00:02Z,2020,16,0,251.6667,251.6667,63.36,-55.219,-999.0,6.45,-999.0,no,yes,no,300234068343310,SVPGHI,AOML,MARIA_S._MERI,North
2020-09-07T16:59:57Z,2020,17,0,251.7083,251.7083,63.367,-55.241,-999.0,6.66,-999.0,no,yes,no,300234068343310,SVPGHI,AOML,MARIA_S._MERI,North
2020-09-07T18:00:00Z,2020,18,0,251.75,251.75,63.377,-55.267,-999.0,6.63,-999.0,no,yes,no,300234068343310,SVPGHI,AOML,MARIA_S._MERI,North
2020-09-07T19:00:02Z,2020,19,0,251.7917,251.7917,63.389,-55.286,-999.0,6.54,-999.0,no,yes,no,300234068343310,SVPGHI,AOML,MARIA_S._MERI,North
2020-09-07T20:00:57Z,2020,20,1,251.834,251.834,63.399,-55.297,-999.0,6.53,-999.0,no,yes,no,300234068343310,SVPGHI,AOML,MARIA_S._MERI,North
2020-09-07T21:00:00Z,2020,21,0,251.875,251.875,63.404,-55.301,-999.0,6.52,-999.0,no,yes,no,300234068343310,SVPGHI,AOML,MARIA_S._MERI,North
2020-09-07T22:00:02Z,2020,22,0,251.9167,251.9167,63.404,-55.32,-999.0,6.58,-999.0,no,yes,no,300234068343310,SVPGHI,AOML,MARIA_S._MERI,North
2020-09-07T22:59:57Z,2020,23,0,251.9583,251.9583,63.409,-55.351,-999.0,6.57,-999.0,no,yes,no,300234068343310,SVPGHI,AOML,MARIA_S._MERI,North
2020-09-08T00:01:00Z,2020,0,1,252.0007,252.0007,63.415,-55.385,-999.0,6.55,-999.0,no,yes,no,300234068343310,SVPGHI,AOML,MARIA_S._MERI,North
2020-09-08T01:00:02Z,2020,1,0,252.0417,252.0417,63.422,-55.416,-999.0,6.53,-999.0,no,yes,no,300234068343310,SVPGHI,AOML,MARIA_S._MERI,North
2020-09-08T01:59:57Z,2020,2,0,252.0833,252.0833,63.432,-55.448,-999.0,6.51,-999.0,no,yes,no,300234068343310,SVPGHI,AOML,MARIA_S._MERI,North
2020-09-08T03:00:00Z,2020,3,0,252.125,252.125,63.449,-55.471,-999.0,6.51,-999.0,no,yes,no,300234068343310,SVPGHI,AOML,MARIA_S._MERI,North
2020-09-08T04:01:03Z,2020,4,1,252.1674,252.1674,63.463,-55.479,-999.0,6.55,-999.0,no,yes,no,300234068343310,SVPGHI,AOML,MARIA_S._MERI,North
2020-09-08T04:59:57Z,2020,5,0,252.2083,252.2083,63.474,-55.476,-999.0,6.58,-999.0,no,yes,no,300234068343310,SVPGHI,AOML,MARIA_S._MERI,North
2020-09-08T06:00:00Z,2020,6,0,252.25,252.25,63.485,-55.463,-999.0,6.71,-999.0,no,yes,no,300234068343310,SVPGHI,AOML,MARIA_S._MERI,North
2020-09-08T07:00:02Z,2020,7,0,252.2917,252.2917,63.489,-55.446,-999.0,6.7,-999.0,no,yes,no,300234068343310,SVPGHI,AOML,MARIA_S._MERI,North
2020-09-08T07:59:57Z,2020,8,0,252.3333,252.3333,63.492,-55.438,-999.0,6.7,-999.0,no,yes,no,300234068343310,SVPGHI,AOML,MARIA_S._MERI,North
2020-09-08T09:00:00Z,2020,9,0,252.375,252.375,63.495,-55.443,-999.0,6.74,-999.0,no,yes,no,300234068343310,SVPGHI,AOML,MARIA_S._MERI,North
2020-09-08T10:00:02Z,2020,10,0,252.4167,252.4167,63.499,-55.454,-999.0,6.74,-999.0,no,yes,no,300234068343310,SVPGHI,AOML,MARIA_S._MERI,North
2020-09-08T10:59:57Z,2020,11,0,252.4583,252.4583,63.506,-55.471,-999.0,6.74,-999.0,no,yes,no,300234068343310,SVPGHI,AOML,MARIA_S._MERI,North
2020-09-08T12:00:00Z,2020,12,0,252.5,252.5,63.515,-55.487,-999.0,6.73,-999.0,no,yes,no,300234068343310,SVPGHI,AOML,MARIA_S._MERI,North
2020-09-08T13:02:03Z,2020,13,2,252.5431,252.5431,63.526,-55.505,-999.0,6.73,-999.0,no,yes,no,300234068343310,SVPGHI,AOML,MARIA_S._MERI,North
2020-09-08T13:59:57Z,2020,14,0,252.5833,252.5833,63.542,-55.519,-999.0,6.73,-999.0,no,yes,no,300234068343310,SVPGHI,AOML,MARIA_S._MERI,North
2020-09-08T15:00:00Z,2020,15,0,252.625,252.625,63.559,-55.524,-999.0,6.74,-999.0,no,yes,no,300234068343310,SVPGHI,AOML,MARIA_S._MERI,North
2020-09-08T16:00:02Z,2020,16,0,252.6667,252.6667,63.578,-55.519,-999.0,6.77,-999.0,no,yes,no,300234068343310,SVPGHI,AOML,MARIA_S._MERI,North
2020-09-08T16:59:57Z,2020,17,0,252.7083,252.7083,63.595,-55.508,-999.0,6.8,-999.0,no,yes,no,300234068343310,SVPGHI,AOML,MARIA_S._MERI,North
2020-09-08T18:00:00Z,2020,18,0,252.75,252.75,63.611,-55.497,-999.0,6.83,-999.0,no,yes,no,300234068343310,SVPGHI,AOML,MARIA_S._MERI,North
2020-09-08T19:00:02Z,2020,19,0,252.7917,252.7917,63.624,-55.478,-999.0,6.84,-999.0,no,yes,no,300234068343310,SVPGHI,AOML,MARIA_S._MERI,North
2020-09-08T20:02:58Z,2020,20,3,252.8354,252.8354,63.635,-55.462,-999.0,6.83,-999.0,no,yes,no,300234068343310,SVPGHI,AOML,MARIA_S._MERI,North
2020-09-08T21:00:00Z,2020,21,0,252.875,252.875,63.645,-55.454,-999.0,6.82,-999.0,no,yes,no,300234068343310,SVPGHI,AOML,MARIA_S._MERI,North
2020-09-08T22:00:02Z,2020,22,0,252.9167,252.9167,63.657,-55.447,-999.0,6.81,-999.0,no,yes,no,300234068343310,SVPGHI,AOML,MARIA_S._MERI,North
2020-09-08T22:59:57Z,2020,23,0,252.9583,252.9583,63.668,-55.443,-999.0,6.8,-999.0,no,yes,no,300234068343310,SVPGHI,AOML,MARIA_S._MERI,North
2020-09-09T00:04:01Z,2020,0,4,253.0028,253.0028,63.682,-55.441,-999.0,6.8,-999.0,no,yes,no,300234068343310,SVPGHI,AOML,MARIA_S._MERI,North
2020-09-09T01:00:02Z,2020,1,0,253.0417,253.0417,63.695,-55.441,-999.0,6.78,-999.0,no,yes,no,300234068343310,SVPGHI,AOML,MARIA_S._MERI,North
2020-09-09T01:59:57Z,2020,2,0,253.0833,253.0833,63.706,-55.432,-999.0,6.75,-999.0,no,yes,no,300234068343310,SVPGHI,AOML,MARIA_S._MERI,North
2020-09-09T03:00:00Z,2020,3,0,253.125,253.125,63.717,-55.423,-999.0,6.68,-999.0,no,yes,no,300234068343310,SVPGHI,AOML,MARIA_S._MERI,North
2020-09-09T04:00:02Z,2020,4,0,253.1667,253.1667,63.726,-55.411,-999.0,6.66,-999.0,no,yes,no,300234068343310,SVPGHI,AOML,MARIA_S._MERI,North
2020-09-09T04:59:57Z,2020,5,0,253.2083,253.2083,63.734,-55.393,-999.0,6.49,-999.0,no,yes,no,300234068343310,SVPGHI,AOML,MARIA_S._MERI,North
2020-09-09T06:00:00Z,2020,6,0,253.25,253.25,63.741,-55.375,-999.0,6.4,-999.0,no,yes,no,300234068343310,SVPGHI,AOML,MARIA_S._MERI,North
2020-09-09T07:00:02Z,2020,7,0,253.2917,253.2917,63.752,-55.36,-999.0,6.37,-999.0,no,yes,no,300234068343310,SVPGHI,AOML,MARIA_S._MERI,North
2020-09-09T07:59:57Z,2020,8,0,253.3333,253.3333,63.762,-55.34,-999.0,6.39,-999.0,no,yes,no,300234068343310,SVPGHI,AOML,MARIA_S._MERI,North
2020-09-09T09:00:00Z,2020,9,0,253.375,253.375,63.769,-55.321,-999.0,6.43,-999.0,no,yes,no,300234068343310,SVPGHI,AOML,MARIA_S._MERI,North
2020-09-09T10:00:02Z,2020,10,0,253.4167,253.4167,63.775,-55.306,-999.0,6.41,-999.0,no,yes,no,300234068343310,SVPGHI,AOML,MARIA_S._MERI,North
2020-09-09T10:59:57Z,2020,11,0,253.4583,253.4583,63.784,-55.294,-999.0,6.41,-999.0,no,yes,no,300234068343310,SVPGHI,AOML,MARIA_S._MERI,North
2020-09-09T12:01:00Z,2020,12,1,253.5007,253.5007,63.789,-55.271,-999.0,6.41,-999.0,no,yes,no,300234068343310,SVPGHI,AOML,MARIA_S._MERI,North
2020-09-09T13:00:02Z,2020,13,0,253.5417,253.5417,63.795,-55.255,-999.0,6.36,-999.0,no,yes,no,300234068343310,SVPGHI,AOML,MARIA_S._MERI,North
2020-09-09T13:59:57Z,2020,14,0,253.5833,253.5833,63.8,-55.239,-999.0,6.38,-999.0,no,yes,no,300234068343310,SVPGHI,AOML,MARIA_S._MERI,North
2020-09-09T15:00:00Z,2020,15,0,253.625,253.625,63.804,-55.226,-999.0,6.47,-999.0,no,yes,no,300234068343310,SVPGHI,AOML,MARIA_S._MERI,North
2020-09-09T16:01:03Z,2020,16,1,253.6674,253.6674,63.808,-55.216,-999.0,6.53,-999.0,no,yes,no,300234068343310,SVPGHI,AOML,MARIA_S._MERI,North
2020-09-09T16:59:57Z,2020,17,0,253.7083,253.7083,63.81,-55.204,-999.0,6.52,-999.0,no,yes,no,300234068343310,SVPGHI,AOML,MARIA_S._MERI,North
2020-09-09T18:00:00Z,2020,18,0,253.75,253.75,63.815,-55.191,-999.0,6.51,-999.0,no,yes,no,300234068343310,SVPGHI,AOML,MARIA_S._MERI,North
2020-09-09T19:00:02Z,2020,19,0,253.7917,253.7917,63.821,-55.179,-999.0,6.48,-999.0,no,yes,no,300234068343310,SVPGHI,AOML,MARIA_S._MERI,North
2020-09-09T19:59:57Z,2020,20,0,253.8333,253.8333,63.828,-55.159,-999.0,6.43,-999.0,no,yes,no,300234068343310,SVPGHI,AOML,MARIA_S._MERI,North
2020-09-09T21:00:00Z,2020,21,0,253.875,253.875,63.834,-55.136,-999.0,6.38,-999.0,no,yes,no,300234068343310,SVPGHI,AOML,MARIA_S._MERI,North
2020-09-09T22:00:02Z,2020,22,0,253.9167,253.9167,63.839,-55.105,-999.0,6.33,-999.0,no,yes,no,300234068343310,SVPGHI,AOML,MARIA_S._MERI,North
2020-09-09T22:59:57Z,2020,23,0,253.9583,253.9583,63.84,-55.076,-999.0,6.26,-999.0,no,yes,no,300234068343310,SVPGHI,AOML,MARIA_S._MERI,North
2020-09-10T00:01:00Z,2020,0,1,254.0007,254.0007,63.839,-55.048,-999.0,6.19,-999.0,no,yes,no,300234068343310,SVPGHI,AOML,MARIA_S._MERI,North
2020-09-10T01:01:03Z,2020,1,1,254.0424,254.0424,63.836,-55.018,-999.0,6.12,-999.0,no,yes,no,300234068343310,SVPGHI,AOML,MARIA_S._MERI,North
2020-09-10T02:00:57Z,2020,2,1,254.084,254.084,63.836,-54.991,-999.0,6.07,-999.0,no,yes,no,300234068343310,SVPGHI,AOML,MARIA_S._MERI,North
2020-09-10T03:03:01Z,2020,3,3,254.1271,254.1271,63.836,-54.968,-999.0,6.03,-999.0,no,yes,no,300234068343310,SVPGHI,AOML,MARIA_S._MERI,North
2020-09-10T04:00:02Z,2020,4,0,254.1667,254.1667,63.834,-54.945,-999.0,6.0,-999.0,no,yes,no,300234068343310,SVPGHI,AOML,MARIA_S._MERI,North
2020-09-10T04:59:57Z,2020,5,0,254.2083,254.2083,63.836,-54.916,-999.0,5.93,-999.0,no,yes,no,300234068343310,SVPGHI,AOML,MARIA_S._MERI,North
2020-09-10T06:00:00Z,2020,6,0,254.25,254.25,63.836,-54.889,-999.0,5.81,-999.0,no,yes,no,300234068343310,SVPGHI,AOML,MARIA_S._MERI,North
2020-09-10T07:00:02Z,2020,7,0,254.2917,254.2917,63.836,-54.865,-999.0,5.8,-999.0,no,yes,no,300234068343310,SVPGHI,AOML,MARIA_S._MERI,North
2020-09-10T07:59:57Z,2020,8,0,254.3333,254.3333,63.834,-54.839,-999.0,5.77,-999.0,no,yes,no,300234068343310,SVPGHI,AOML,MARIA_S._MERI,North
2020-09-10T09:00:00Z,2020,9,0,254.375,254.375,63.833,-54.812,-999.0,5.82,-999.0,no,yes,no,300234068343310,SVPGHI,AOML,MARIA_S._MERI,North
2020-09-10T10:00:02Z,2020,10,0,254.4167,254.4167,63.83,-54.787,-999.0,5.88,-999.0,no,yes,no,300234068343310,SVPGHI,AOML,MARIA_S._MERI,North
2020-09-10T10:59:57Z,2020,11,0,254.4583,254.4583,63.822,-54.765,-999.0,5.95,-999.0,no,yes,no,300234068343310,SVPGHI,AOML,MARIA_S._MERI,North
2020-09-10T12:00:00Z,2020,12,0,254.5,254.5,63.819,-54.75,-999.0,5.95,-999.0,no,yes,no,300234068343310,SVPGHI,AOML,MARIA_S._MERI,North
2020-09-10T13:03:56Z,2020,13,4,254.5444,254.5444,63.806,-54.738,-999.0,5.88,-999.0,no,yes,no,300234068343310,SVPGHI,AOML,MARIA_S._MERI,North
2020-09-10T14:00:57Z,2020,14,1,254.584,254.584,63.801,-54.731,-999.0,5.81,-999.0,no,yes,no,300234068343310,SVPGHI,AOML,MARIA_S._MERI,North
2020-09-10T15:01:00Z,2020,15,1,254.6257,254.6257,63.796,-54.726,-999.0,5.77,-999.0,no,yes,no,300234068343310,SVPGHI,AOML,MARIA_S._MERI,North
2020-09-10T16:01:03Z,2020,16,1,254.6674,254.6674,63.795,-54.714,-999.0,5.76,-999.0,no,yes,no,300234068343310,SVPGHI,AOML,MARIA_S._MERI,North
2020-09-10T16:59:57Z,2020,17,0,254.7083,254.7083,63.797,-54.683,-999.0,5.75,-999.0,no,yes,no,300234068343310,SVPGHI,AOML,MARIA_S._MERI,North
2020-09-10T18:00:00Z,2020,18,0,254.75,254.75,63.792,-54.644,-999.0,5.72,-999.0,no,yes,no,300234068343310,SVPGHI,AOML,MARIA_S._MERI,North
2020-09-10T19:03:56Z,2020,19,4,254.7944,254.7944,63.784,-54.61,-999.0,5.66,-999.0,no,yes,no,300234068343310,SVPGHI,AOML,MARIA_S._MERI,North
2020-09-10T19:59:57Z,2020,20,0,254.8333,254.8333,63.768,-54.58,-999.0,5.59,-999.0,no,yes,no,300234068343310,SVPGHI,AOML,MARIA_S._MERI,North
2020-09-10T21:00:00Z,2020,21,0,254.875,254.875,63.749,-54.555,-999.0,5.5,-999.0,no,yes,no,300234068343310,SVPGHI,AOML,MARIA_S._MERI,North
2020-09-10T22:00:02Z,2020,22,0,254.9167,254.9167,63.732,-54.539,-999.0,5.46,-999.0,no,yes,no,300234068343310,SVPGHI,AOML,MARIA_S._MERI,North
2020-09-10T22:59:57Z,2020,23,0,254.9583,254.9583,63.716,-54.533,-999.0,5.44,-999.0,no,yes,no,300234068343310,SVPGHI,AOML,MARIA_S._MERI,North
2020-09-11T00:00:00Z,2020,0,0,255.0,255.0,63.703,-54.53,-999.0,5.45,-999.0,no,yes,no,300234068343310,SVPGHI,AOML,MARIA_S._MERI,North
2020-09-11T01:00:02Z,2020,1,0,255.0417,255.0417,63.692,-54.529,-999.0,5.48,-999.0,no,yes,no,300234068343310,SVPGHI,AOML,MARIA_S._MERI,North
2020-09-11T01:59:57Z,2020,2,0,255.0833,255.0833,63.684,-54.53,-999.0,5.54,-999.0,no,yes,no,300234068343310,SVPGHI,AOML,MARIA_S._MERI,North
2020-09-11T03:00:00Z,2020,3,0,255.125,255.125,63.686,-54.52,-999.0,5.57,-999.0,no,yes,no,300234068343310,SVPGHI,AOML,MARIA_S._MERI,North
2020-09-11T04:00:02Z,2020,4,0,255.1667,255.1667,63.68,-54.49,-999.0,5.64,-999.0,no,yes,no,300234068343310,SVPGHI,AOML,MARIA_S._MERI,North
2020-09-11T04:59:57Z,2020,5,0,255.2083,255.2083,63.669,-54.46,-999.0,5.65,-999.0,no,yes,no,300234068343310,SVPGHI,AOML,MARIA_S._MERI,North
2020-09-11T06:00:00Z,2020,6,0,255.25,255.25,63.651,-54.433,-999.0,5.63,-999.0,no,yes,no,300234068343310,SVPGHI,AOML,MARIA_S._MERI,North
2020-09-11T07:00:02Z,2020,7,0,255.2917,255.2917,63.634,-54.414,-999.0,5.62,-999.0,no,yes,no,300234068343310,SVPGHI,AOML,MARIA_S._MERI,North
2020-09-11T07:59:57Z,2020,8,0,255.3333,255.3333,63.615,-54.406,-999.0,5.59,-999.0,no,yes,no,300234068343310,SVPGHI,AOML,MARIA_S._MERI,North
2020-09-11T09:00:00Z,2020,9,0,255.375,255.375,63.598,-54.412,-999.0,5.6,-999.0,no,yes,no,300234068343310,SVPGHI,AOML,MARIA_S._MERI,North
2020-09-11T10:00:02Z,2020,10,0,255.4167,255.4167,63.587,-54.428,-999.0,5.54,-999.0,no,yes,no,300234068343310,SVPGHI,AOML,MARIA_S._MERI,North
2020-09-11T10:59:57Z,2020,11,0,255.4583,255.4583,63.578,-54.441,-999.0,5.52,-999.0,no,yes,no,300234068343310,SVPGHI,AOML,MARIA_S._MERI,North
2020-09-11T12:01:00Z,2020,12,1,255.5007,255.5007,63.573,-54.455,-999.0,5.6,-999.0,no,yes,no,300234068343310,SVPGHI,AOML,MARIA_S._MERI,North
2020-09-11T13:00:02Z,2020,13,0,255.5417,255.5417,63.566,-54.464,-999.0,5.69,-999.0,no,yes,no,300234068343310,SVPGHI,AOML,MARIA_S._MERI,North
2020-09-11T13:59:57Z,2020,14,0,255.5833,255.5833,63.569,-54.467,-999.0,5.77,-999.0,no,yes,no,300234068343310,SVPGHI,AOML,MARIA_S._MERI,North
2020-09-11T15:01:00Z,2020,15,1,255.6257,255.6257,63.567,-54.472,-999.0,5.83,-999.0,no,yes,no,300234068343310,SVPGHI,AOML,MARIA_S._MERI,North
2020-09-11T16:00:02Z,2020,16,0,255.6667,255.6667,63.561,-54.473,-999.0,5.85,-999.0,no,yes,no,300234068343310,SVPGHI,AOML,MARIA_S._MERI,North
2020-09-11T16:59:57Z,2020,17,0,255.7083,255.7083,63.549,-54.467,-999.0,5.85,-999.0,no,yes,no,300234068343310,SVPGHI,AOML,MARIA_S._MERI,North
2020-09-11T18:01:00Z,2020,18,1,255.7507,255.7507,63.534,-54.462,-999.0,5.89,-999.0,no,yes,no,300234068343310,SVPGHI,AOML,MARIA_S._MERI,North
2020-09-11T19:01:03Z,2020,19,1,255.7924,255.7924,63.523,-54.472,-999.0,5.89,-999.0,no,yes,no,300234068343310,SVPGHI,AOML,MARIA_S._MERI,North
2020-09-11T19:59:57Z,2020,20,0,255.8333,255.8333,63.515,-54.487,-999.0,5.91,-999.0,no,yes,no,300234068343310,SVPGHI,AOML,MARIA_S._MERI,North
2020-09-11T21:00:00Z,2020,21,0,255.875,255.875,63.508,-54.503,-999.0,5.93,-999.0,no,yes,no,300234068343310,SVPGHI,AOML,MARIA_S._MERI,North
2020-09-11T22:00:02Z,2020,22,0,255.9167,255.9167,63.504,-54.517,-999.0,6.0,-999.0,no,yes,no,300234068343310,SVPGHI,AOML,MARIA_S._MERI,North
2020-09-11T22:59:57Z,2020,23,0,255.9583,255.9583,63.494,-54.531,-999.0,6.0,-999.0,no,yes,no,300234068343310,SVPGHI,AOML,MARIA_S._MERI,North
2020-09-12T00:00:00Z,2020,0,0,256.0,256.0,63.489,-54.549,-999.0,6.11,-999.0,no,yes,no,300234068343310,SVPGHI,AOML,MARIA_S._MERI,North
2020-09-12T01:00:02Z,2020,1,0,256.0417,256.0417,63.484,-54.573,-999.0,6.27,-999.0,no,yes,no,300234068343310,SVPGHI,AOML,MARIA_S._MERI,North
2020-09-12T01:59:57Z,2020,2,0,256.0833,256.0833,63.482,-54.598,-999.0,6.38,-999.0,no,yes,no,300234068343310,SVPGHI,AOML,MARIA_S._MERI,North
2020-09-12T03:00:00Z,2020,3,0,256.125,256.125,63.48,-54.615,-999.0,6.39,-999.0,no,yes,no,300234068343310,SVPGHI,AOML,MARIA_S._MERI,North
2020-09-12T04:00:02Z,2020,4,0,256.1667,256.1667,63.482,-54.634,-999.0,6.38,-999.0,no,yes,no,300234068343310,SVPGHI,AOML,MARIA_S._MERI,North
2020-09-12T04:59:57Z,2020,5,0,256.2083,256.2083,63.481,-54.647,-999.0,6.36,-999.0,no,yes,no,300234068343310,SVPGHI,AOML,MARIA_S._MERI,North
2020-09-12T06:00:00Z,2020,6,0,256.25,256.25,63.479,-54.657,-999.0,6.37,-999.0,no,yes,no,300234068343310,SVPGHI,AOML,MARIA_S._MERI,North
2020-09-12T07:00:02Z,2020,7,0,256.2917,256.2917,63.475,-54.669,-999.0,6.31,-999.0,no,yes,no,300234068343310,SVPGHI,AOML,MARIA_S._MERI,North
2020-09-12T07:59:57Z,2020,8,0,256.3333,256.3333,63.47,-54.691,-999.0,6.23,-999.0,no,yes,no,300234068343310,SVPGHI,AOML,MARIA_S._MERI,North
2020-09-12T09:00:00Z,2020,9,0,256.375,256.375,63.466,-54.717,-999.0,6.2,-999.0,no,yes,no,300234068343310,SVPGHI,AOML,MARIA_S._MERI,North
2020-09-12T10:00:02Z,2020,10,0,256.4167,256.4167,63.466,-54.745,-999.0,6.28,-999.0,no,yes,no,300234068343310,SVPGHI,AOML,MARIA_S._MERI,North
2020-09-12T10:59:57Z,2020,11,0,256.4583,256.4583,63.464,-54.777,-999.0,6.33,-999.0,no,yes,no,300234068343310,SVPGHI,AOML,MARIA_S._MERI,North
2020-09-12T12:01:00Z,2020,12,1,256.5007,256.5007,63.463,-54.808,-999.0,6.3,-999.0,no,yes,no,300234068343310,SVPGHI,AOML,MARIA_S._MERI,North
2020-09-12T13:00:02Z,2020,13,0,256.5417,256.5417,63.468,-54.835,-999.0,6.31,-999.0,no,yes,no,300234068343310,SVPGHI,AOML,MARIA_S._MERI,North
2020-09-12T13:59:57Z,2020,14,0,256.5833,256.5833,63.472,-54.859,-999.0,6.33,-999.0,no,yes,no,300234068343310,SVPGHI,AOML,MARIA_S._MERI,North
2020-09-12T15:00:00Z,2020,15,0,256.625,256.625,63.478,-54.884,-999.0,6.35,-999.0,no,yes,no,300234068343310,SVPGHI,AOML,MARIA_S._MERI,North
2020-09-12T16:00:02Z,2020,16,0,256.6667,256.6667,63.485,-54.9,-999.0,6.37,-999.0,no,yes,no,300234068343310,SVPGHI,AOML,MARIA_S._MERI,North
2020-09-12T16:59:57Z,2020,17,0,256.7083,256.7083,63.488,-54.914,-999.0,6.39,-999.0,no,yes,no,300234068343310,SVPGHI,AOML,MARIA_S._MERI,North
2020-09-12T18:00:00Z,2020,18,0,256.75,256.75,63.491,-54.925,-999.0,6.41,-999.0,no,yes,no,300234068343310,SVPGHI,AOML,MARIA_S._MERI,North
2020-09-12T19:00:02Z,2020,19,0,256.7917,256.7917,63.492,-54.938,-999.0,6.4,-999.0,no,yes,no,300234068343310,SVPGHI,AOML,MARIA_S._MERI,North
2020-09-12T19:59:57Z,2020,20,0,256.8333,256.8333,63.491,-54.957,-999.0,6.39,-999.0,no,yes,no,300234068343310,SVPGHI,AOML,MARIA_S._MERI,North